Portada
METAR-TAF:

Aeropuertos :

Chichén Itzá, México

Aeropuerto Internacional de Kaua

latitud: 20-38-30N, longitud: 088-26-58W, altitud: 31 m

Observación

El informe se hizo hace 3 horas y 11 minutos, a las 20:43 UTC
Viento 10 kt del este-sureste
Temperatura 34°C
Humedad 47%
Presión 1014 hPa
Visibilidad: 12.9 km
Cielo nuboso a una altura de 1500 ft

METAR: MMCT 282043Z 12010KT 8SM BKN015 34/21 A2994 RMK 8/400 MSGTX MMMD

Hora: 18:54 (23:54 UTC)


TAF: falta

METAR-TAF

Observaciones y pronósticos meteorológicos de más de 4000 aeropuertos (mensajes METAR y TAF).

Los puntos amarillos y rojos representan las estaciones disponibles.

Ponga el ratón en el punto deseado para ver el nombre de la estación.

Haga clic para ver las observaciones y los pronósticos meteorológicos.

Para cambiar el mapa : haga clic en los botones verdes con una cruz de color negro para hacer un zoom, en el botón verde con un guión para alejar o en las flechas verdes para mapas adyacentes.


METAR-TAF: